Location: Chiroubles
(46.1812°N, 4.6660°E)
Time: 21:36:05
(UTC+00:00)

Courier 1B - Pass Details

Date: 08 August 2021
Orbit: 963 x 1209 km, 28.3° (Epoch: 25 September)

Event Time Altitude Azimuth Distance (km) Brightness Sun altitude
Rises 19:57:39 0° 250° (WSW) 4,100 11.3 -9.3°
Reaches altitude 10° 20:02:18 10° 226° (SW) 3,141 10.3 -10.0°
Maximum altitude 20:05:45 13° 199° (SSW) 2,876 9.8 -10.5°
Drops below altitude 10° 20:09:12 10° 173° (S) 3,121 9.7 -10.9°
Enters shadow 20:10:56 - 162° (SSE) 3,413 9.8 -11.2°
